Tracking 23731 objects as of 26-Sep-2021
HD Live streaming from Space Station
objects crossing your sky now

AMC-7 (GE-7)

Track AMC-7 (GE-7) now!
AMC-7 (GE-7) is classified as:


NORAD ID: 26495
Int'l Code: 2000-054B
Perigee: 36,090.8 km
Apogee: 36,142.3 km
Inclination: 2.5 °
Period: 1,452.6 minutes
Semi major axis: 42487 km
RCS: 22.9975 m2 (large)
Launch date: September 14, 2000
Source: SOCIETE EUROPEENNE DES SATELLITES (SES)
Launch site: FRENCH GUIANA (FRGUI)

Cable programming; 24 C-band; CONUS, Alaska, Hawaii, Caribbean
aabbcc
Your satellite tracking list
Your tracking list is empty




NASA's NSSDC Master Catalog

Two Line Element Set (TLE):
1 26495U 00054B   21268.62616907  .00000046  00000-0  00000-0 0  9991
2 26495   2.5023  90.1716 0006062  62.0395 329.2010  0.99131167 76864
Source of the keplerian elements: AFSPC